Regional Weather Roundup
Issued by NWS

Home | Current Version | Previous Version | Graphics & Text | Print | Product List | Glossary On
Versions: 1 2 3 4 5 6 7 8 9 10 11 12 13 14 15 16 17 18 19 20 21 22 23 24 25 26 27
000
ASUS45 KCYS 230310
RWRWY

WYOMING REGIONAL WEATHER ROUNDUP
NATIONAL WEATHER SERVICE CHEYENNE WY
800 PM MST THU FEB 22 2018

NOTE:  "FAIR" INDICATES FEW OR NO CLOUDS BELOW 12,000 FEET
WITH NO SIGNIFICANT WEATHER AND/OR OBSTRUCTIONS TO VISIBILITY.

WYZ001-230400-
YELLOWSTONE NATIONAL PARK

CITY           SKY/WX    TMP DP  RH WIND       PRES   REMARKS
LK YELLOWSTONE   N/A     -3  -7  82 NW3       29.87S
W YELLOWSTONE  NOT AVBL

$$
WYZ002>013-054>058-071-098>099-230400-
NORTHERN WYOMING

CITY           SKY/WX    TMP DP  RH WIND       PRES   REMARKS
JACKSON        CLOUDY    16   7  67 CALM      29.92R
CODY           FAIR       7   0  73 NE7       30.03R WCI  -5
GREYBULL       FAIR      -1  -4  87 CALM      30.09R
WORLAND        FAIR       0  -4  83 CALM      30.07R
SHERIDAN       FAIR       9   0  67 CALM      30.10R
BUFFALO        FAIR      15  -4  42 NW8       30.04R WCI   4
GILLETTE       FAIR      -2  -7  79 CALM      30.05R
HULETT         FAIR      12   1  62 MISG      30.06S
NEWCASTLE      FAIR       9   0  66 E3        30.03R

$$
WYZ014>020-022>026-101>103-230400-
CENTRAL WYOMING

CITY           SKY/WX    TMP DP  RH WIND       PRES   REMARKS
BIG PINEY      CLOUDY    12   7  80 SW3       29.92R
PINEDALE       CLOUDY    10   7  85 CALM      29.92S
DUBOIS           N/A    N/A N/A N/A MISG        N/A
LANDER         FAIR       7   0  73 W6        29.97R WCI  -3
RIVERTON       FAIR       5  -4  66 CALM      29.98R
CASPER         FAIR       5   0  79 CALM      30.00R
DOUGLAS        FAIR       6   1  80 CALM      30.02R

$$
WYZ021-027>030-104>119-230400-
SOUTHERN WYOMING

CITY           SKY/WX    TMP DP  RH WIND       PRES   REMARKS
EVANSTON       FAIR      11   8  88 E6        29.89R WCI   1
ROCK SPRINGS   CLOUDY    11   5  77 W8        29.92R WCI  -1
DIXON          CLOUDY    22  16  79 CALM      29.97R
RAWLINS        CLOUDY    12   9  87 CALM      29.94R
SARATOGA       CLOUDY    16  16 100 CALM      29.93S
LARAMIE        FAIR      11  11 100 NE5       29.91S WCI   3
CHEYENNE       MOCLDY    17  15  92 SW8       29.98R FOG     WCI   7
TORRINGTON     FAIR      22  13  68 NW5       30.03R WCI  16
PINE BLUFFS    CLOUDY    18  14  86 W7        30.03R WCI   8

$$




USA.gov is the U.S. government's official web portal to all federal, state and local government web resources and services.